| time (UTC) | temp F | wind direction | speed MPH | gust MPH | rain 1hr in | rain 24hr in | rain mn in | humidity % | barometer mb |
| 20260504212217 | 75 | 248 | 5.0 | 8.0 | 0.00 | 0.00 | 0.00 | 54 | 1010.1 |
| 20260504211217 | 74 | 248 | 5.0 | 8.0 | 0.00 | 0.00 | 0.00 | 55 | 1010.1 |
| 20260504210217 | 74 | 248 | 6.0 | 9.0 | 0.00 | 0.00 | 0.00 | 57 | 1010.1 |
| 20260504205216 | 73 | 248 | 5.0 | 9.0 | 0.00 | 0.00 | 0.00 | 58 | 1010.3 |
| 20260504204217 | 73 | 248 | 6.0 | 9.0 | 0.00 | 0.00 | 0.00 | 59 | 1010.3 |
| 20260504203217 | 73 | 248 | 5.0 | 9.0 | 0.00 | 0.00 | 0.00 | 59 | 1010.2 |
| 20260504202217 | 73 | 248 | 5.0 | 8.0 | 0.00 | 0.00 | 0.00 | 59 | 1010.4 |
| 20260504201217 | 73 | 225 | 4.0 | 8.0 | 0.00 | 0.00 | 0.00 | 61 | 1010.4 |
| 20260504200216 | 73 | 248 | 5.0 | 8.0 | 0.00 | 0.00 | 0.00 | 61 | 1010.5 |
| 20260504195216 | 72 | 293 | 3.0 | 6.0 | 0.00 | 0.00 | 0.00 | 62 | 1010.5 |
| 20260504194217 | 71 | 225 | 4.0 | 6.0 | 0.00 | 0.00 | 0.00 | 63 | 1010.5 |
| 20260504193217 | 71 | 248 | 5.0 | 8.0 | 0.00 | 0.00 | 0.00 | 63 | 1010.5 |
| 20260504192217 | 70 | 270 | 5.0 | 9.0 | 0.00 | 0.00 | 0.00 | 63 | 1010.6 |
| 20260504191217 | 71 | 293 | 4.0 | 12.0 | 0.00 | 0.00 | 0.00 | 64 | 1010.8 |
| 20260504190216 | 70 | 225 | 4.0 | 8.0 | 0.00 | 0.00 | 0.00 | 65 | 1010.8 |
| 20260504185237 | 69 | 225 | 5.0 | 8.0 | 0.00 | 0.00 | 0.00 | 66 | 1010.8 |
| 20260504184217 | 69 | 248 | 6.0 | 9.0 | 0.00 | 0.00 | 0.00 | 65 | 1010.9 |
| 20260504183216 | 69 | 248 | 6.0 | 10.0 | 0.00 | 0.00 | 0.00 | 65 | 1011.0 |
| 20260504182237 | 69 | 270 | 4.0 | 7.0 | 0.00 | 0.00 | 0.00 | 63 | 1010.9 |
| 20260504181216 | 68 | 248 | 3.0 | 5.0 | 0.00 | 0.00 | 0.00 | 65 | 1011.0 |
| 20260504180216 | 67 | 225 | 3.0 | 5.0 | 0.00 | 0.00 | 0.00 | 67 | 1010.9 |
| 20260504175217 | 66 | 225 | 3.0 | 6.0 | 0.00 | 0.00 | 0.00 | 68 | 1011.0 |
| 20260504174217 | 65 | 270 | 3.0 | 6.0 | 0.00 | 0.00 | 0.00 | 70 | 1010.9 |
| 20260504173236 | 65 | 248 | 5.0 | 8.0 | 0.00 | 0.00 | 0.00 | 71 | 1010.8 |
| 20260504172216 | 64 | 270 | 4.0 | 9.0 | 0.00 | 0.00 | 0.00 | 72 | 1011.0 |
| 20260504171216 | 64 | 248 | 3.0 | 5.0 | 0.00 | 0.00 | 0.00 | 72 | 1011.0 |
| 20260504170216 | 63 | 225 | 4.0 | 8.0 | 0.00 | 0.00 | 0.00 | 73 | 1010.8 |
| 20260504160216 | 60 | 225 | 5.0 | 11.0 | 0.00 | 0.00 | 0.00 | 78 | 1010.6 |
| 20260504150217 | 57 | 225 | 4.0 | 7.0 | 0.00 | 0.00 | 0.00 | 85 | 1010.3 |
| 20260504141217 | 51 | 0.0 | 1.0 | 0.00 | 0.00 | 0.00 | 91 | 1010.0 | |
| 20260504140217 | 50 | 0.0 | 0.0 | 0.00 | 0.00 | 0.00 | 91 | 1009.8 | |
| 20260504130216 | 49 | 0.0 | 0.0 | 0.00 | 0.00 | 0.00 | 89 | 1009.3 | |
| 20260504120216 | 50 | 0.0 | 0.0 | 0.00 | 0.00 | 0.00 | 88 | 1008.9 | |
| 20260504110217 | 52 | 0.0 | 0.0 | 0.00 | 0.00 | 0.00 | 87 | 1008.6 | |
| 20260504100216 | 53 | 113 | 1.0 | 2.0 | 0.00 | 0.00 | 0.00 | 85 | 1008.4 |
| 20260504081216 | 55 | 0.0 | 1.0 | 0.00 | 0.00 | 0.00 | 84 | 1008.5 | |
| 20260504080217 | 56 | 45 | 1.0 | 1.0 | 0.00 | 0.00 | 0.00 | 83 | 1008.5 |
| 20260504070237 | 58 | 68 | 2.0 | 4.0 | 0.00 | 0.00 | 0.00 | 81 | 1008.2 |
| 20260504060215 | 59 | 0.0 | 1.0 | 0.00 | 0.00 | 0.00 | 78 | 1008.5 | |
| 20260504050235 | 63 | 68 | 1.0 | 2.0 | 0.00 | 0.00 | 0.00 | 71 | 1008.4 |
| 20260504045215 | 64 | 68 | 1.0 | 1.0 | 0.00 | 0.00 | 0.00 | 70 | 1008.3 |
| 20260504044235 | 64 | 68 | 1.0 | 1.0 | 0.00 | 0.00 | 0.00 | 69 | 1008.3 |
| 20260504043215 | 65 | 0.0 | 0.0 | 0.00 | 0.00 | 0.00 | 67 | 1008.2 | |
| 20260504042217 | 66 | 0.0 | 1.0 | 0.00 | 0.00 | 0.00 | 66 | 1008.0 | |
| 20260504041217 | 67 | 68 | 1.0 | 2.0 | 0.00 | 0.00 | 0.00 | 64 | 1007.9 |
| 20260504040358 | 69 | 68 | 2.0 | 3.0 | 0.00 | 0.00 | 0.00 | 63 | 1008.1 |
| 20260504035237 | 70 | 23 | 1.0 | 3.0 | 0.00 | 0.00 | 0.00 | 59 | 1007.9 |
| 20260504034217 | 70 | 68 | 2.0 | 3.0 | 0.00 | 0.00 | 0.00 | 58 | 1007.7 |
| 20260504033217 | 71 | 90 | 1.0 | 2.0 | 0.00 | 0.00 | 0.00 | 56 | 1007.6 |
| 20260504032217 | 75 | 0.0 | 0.0 | 0.00 | 0.00 | 0.00 | 50 | 1007.5 | |
| 20260504031217 | 75 | 0.0 | 2.0 | 0.00 | 0.00 | 0.00 | 50 | 1007.4 | |
| 20260504030217 | 77 | 0.0 | 1.0 | 0.00 | 0.00 | 0.00 | 47 | 1007.5 | |
| 20260504025217 | 79 | 23 | 3.0 | 4.0 | 0.00 | 0.00 | 0.00 | 38 | 1007.6 |
| 20260504024217 | 80 | 23 | 3.0 | 4.0 | 0.00 | 0.00 | 0.00 | 36 | 1007.5 |
| 20260504023217 | 81 | 45 | 3.0 | 6.0 | 0.00 | 0.00 | 0.00 | 36 | 1007.5 |
| 20260504022217 | 81 | 23 | 3.0 | 5.0 | 0.00 | 0.00 | 0.00 | 37 | 1007.5 |
| 20260504021217 | 82 | 23 | 3.0 | 6.0 | 0.00 | 0.00 | 0.00 | 37 | 1007.5 |
| 20260504020217 | 82 | 23 | 3.0 | 5.0 | 0.00 | 0.00 | 0.00 | 36 | 1007.5 |
| 20260504015217 | 83 | 45 | 5.0 | 8.0 | 0.00 | 0.00 | 0.00 | 36 | 1007.6 |
| 20260504014217 | 84 | 45 | 4.0 | 6.0 | 0.00 | 0.00 | 0.00 | 35 | 1007.6 |
| 20260504013217 | 85 | 23 | 4.0 | 7.0 | 0.00 | 0.00 | 0.00 | 34 | 1007.6 |
| 20260504012217 | 85 | 23 | 3.0 | 5.0 | 0.00 | 0.00 | 0.00 | 30 | 1007.6 |
| 20260504011217 | 85 | 23 | 5.0 | 8.0 | 0.00 | 0.00 | 0.00 | 29 | 1007.7 |
| 20260504010217 | 85 | 0 | 3.0 | 5.0 | 0.00 | 0.00 | 0.00 | 29 | 1007.8 |
| 20260504005237 | 85 | 23 | 4.0 | 6.0 | 0.00 | 0.00 | 0.00 | 29 | 1007.9 |
| 20260504004217 | 85 | 23 | 4.0 | 6.0 | 0.00 | 0.00 | 0.00 | 30 | 1008.1 |
| 20260504003217 | 85 | 0 | 4.0 | 6.0 | 0.00 | 0.00 | 0.00 | 29 | 1008.1 |
| 20260504002217 | 85 | 45 | 5.0 | 7.0 | 0.00 | 0.00 | 0.00 | 32 | 1008.3 |
| 20260504001237 | 85 | 0 | 4.0 | 5.0 | 0.00 | 0.00 | 0.00 | 31 | 1008.5 |
| 20260504000219 | 85 | 0 | 4.0 | 7.0 | 0.00 | 0.00 | 0.00 | 31 | 1008.6 |
| 20260503235217 | 85 | 23 | 3.0 | 5.0 | 0.00 | 0.00 | 0.00 | 30 | 1008.6 |
| 20260503234217 | 84 | 23 | 4.0 | 6.0 | 0.00 | 0.00 | 0.00 | 30 | 1008.7 |
| 20260503233217 | 84 | 45 | 5.0 | 7.0 | 0.00 | 0.00 | 0.00 | 32 | 1008.8 |
| 20260503232357 | 84 | 23 | 5.0 | 8.0 | 0.00 | 0.00 | 0.00 | 33 | 1009.0 |
| 20260503231217 | 83 | 23 | 6.0 | 9.0 | 0.00 | 0.00 | 0.00 | 32 | 1009.1 |
| 20260503230217 | 83 | 23 | 5.0 | 8.0 | 0.00 | 0.00 | 0.00 | 33 | 1009.2 |
| 20260503225248 | 83 | 68 | 5.0 | 5.0 | 0.00 | 0.00 | 0.00 | 33 | 1009.4 |
| 20260503225117 | 83 | 0.0 | 0.0 | 0.00 | 0.00 | 0.00 | 33 | 1009.4 | |
| 20260503224717 | 83 | 68 | 4.0 | 7.0 | 0.00 | 0.00 | 0.00 | 34 | 1009.4 |
| 20260503223717 | 84 | 0 | 5.0 | 8.0 | 0.00 | 0.00 | 0.00 | 34 | 1009.6 |
| 20260503222717 | 84 | 0 | 5.0 | 9.0 | 0.00 | 0.00 | 0.00 | 34 | 1009.8 |
| 20260503221717 | 83 | 23 | 4.0 | 6.0 | 0.00 | 0.00 | 0.00 | 36 | 1009.9 |
| 20260503220737 | 83 | 45 | 5.0 | 7.0 | 0.00 | 0.00 | 0.00 | 37 | 1010.0 |
| 20260503215737 | 83 | 45 | 6.0 | 9.0 | 0.00 | 0.00 | 0.00 | 38 | 1010.0 |
| 20260503214717 | 82 | 23 | 4.0 | 8.0 | 0.00 | 0.00 | 0.00 | 39 | 1010.2 |
| 20260503213757 | 82 | 0 | 4.0 | 9.0 | 0.00 | 0.00 | 0.00 | 38 | 1010.3 |